(223920) = 2007 GX41 = 2006 BT105 = 2004 VB111 = 1999 TT304

Discovered at Mauna Kea on 2004-11-09 by C. Veillet.

Orbit

Orbit type: Main Belt

Note: WebGL enabled browser required.

epoch2023-09-13.0
epoch JD2460200.5
perihelion date2022-12-10.51181
perihelion JD2459924.01181
argument of perihelion (°)259.75047
ascending node (°)44.58189
inclination (°)2.62589
eccentricity0.0428785
perihelion distance (AU)2.7412046
Tisserand w.r.t. Jupiter3.3
ΔV w.r.t. Earth (km/sec)10.3
semimajor axis (AU)2.8640089
mean anomaly (°)56.22363
mean daily motion (°/day)0.20334910
aphelion distance (AU)2.987
period (years)4.85
P-vector [x]0.56326725
P-vector [y]-0.73902993
P-vector [z]-0.36954671
Q-vector [x]0.82564874
Q-vector [y]0.52081781
Q-vector [z]0.21691697
absolute magnitude16.41
phase slope0.15
uncertainty0
referenceMPEC 2023-X152
observations used341
oppositions18
arc length (days)10651
first opposition used1994
last opposition used2023
residual rms (arc-secs)0.73
perturbers coarse indicatorM-v
perturbers precise indicator003Ek
first observation date used1994-10-08.0
last observation date used2023-12-06.0
computer nameMPCLINUX
JD of orbit computation2456966.820390
perihelion JD uncertainty (days)3.0357E-04
argument of perihelion uncertainty (°)1.1334E-04
ascending node uncertainty (°)9.3927E-05
inclination uncertainty (°)4.8529E-06
eccentricity uncertainty 3.6893E-08
perihelion distance uncertainty (AU)1.0879E-07
Minimum Orbit Intersection Distances (in AU)
for orbit epoch: 2460200.5, reference: E2023-XF2
Mercury2.29279
Venus2.01302
Earth1.72691
Mars1.26744
Jupiter2.10249
Saturn6.08978
Uranus15.4883
Neptune26.9727

Observations

350 total observations over interval: 1994 10 08.19808 – 2023 12 06.258435
These data are available for download (format description).

Date (UT) J2000 RA J2000 Dec Magn Location Ref
1994 10 08.19808 01 02 33.46 +04 30 39.1 20.0 V 691 – Steward Observatory, Kitt Peak-Spacewatch MPS 211756
1994 10 08.22211 01 02 32.22 +04 30 33.1   691 – Steward Observatory, Kitt Peak-Spacewatch MPS 211756
1994 10 08.25943 01 02 30.31 +04 30 23.1   691 – Steward Observatory, Kitt Peak-Spacewatch MPS 211756
1999 10 04.46368 02 12 20.97 +12 00 43.8 20.9 V 691 – Steward Observatory, Kitt Peak-Spacewatch MPS 16583
1999 10 04.48531 02 12 20.05 +12 00 40.3 20.6 V 691 – Steward Observatory, Kitt Peak-Spacewatch MPS 16583
1999 10 04.50896 02 12 19.06 +12 00 36.1 20.4 V 691 – Steward Observatory, Kitt Peak-Spacewatch MPS 16583
1999 10 11.40205 02 07 14.62 +11 38 51.4 20.0 V 691 – Steward Observatory, Kitt Peak-Spacewatch MPS 16583
1999 10 11.42384 02 07 13.56 +11 38 46.9 20.0 V 691 – Steward Observatory, Kitt Peak-Spacewatch MPS 16583
1999 10 11.44744 02 07 12.42 +11 38 42.1 20.1 V 691 – Steward Observatory, Kitt Peak-Spacewatch MPS 16583
2000 12 31.42370 08 19 14.60 +23 17 06.9 21.5 V 691 – Steward Observatory, Kitt Peak-Spacewatch MPS 211756
2000 12 31.44677 08 19 13.48 +23 17 11.0 21.5 V 691 – Steward Observatory, Kitt Peak-Spacewatch MPS 211756
2000 12 31.46990 08 19 12.41 +23 17 15.8 21.4 V 691 – Steward Observatory, Kitt Peak-Spacewatch MPS 211756
2001 01 21.26620 08 00 38.49 +24 23 10.0 20.9 V 691 – Steward Observatory, Kitt Peak-Spacewatch MPS 211756
2001 01 21.28882 08 00 37.15 +24 23 13.8 21.0 V 691 – Steward Observatory, Kitt Peak-Spacewatch MPS 211756
2001 01 21.31148 08 00 35.85 +24 23 17.9 20.4 V 691 – Steward Observatory, Kitt Peak-Spacewatch MPS 211756
2002 04 08.27124 13 36 05.24 -08 23 49.9 20.9   644 – Palomar Mountain/NEAT MPS 211756
2002 04 08.29535 13 36 04.00 -08 23 44.2 20.8 V 691 – Steward Observatory, Kitt Peak-Spacewatch MPS 211756
2002 04 08.32006 13 36 02.75 -08 23 38.4 21.0 V 691 – Steward Observatory, Kitt Peak-Spacewatch MPS 211756
2002 04 08.34201 13 36 01.64 -08 23 33.3 20.9 V 691 – Steward Observatory, Kitt Peak-Spacewatch MPS 211756
2002 04 08.34381 13 36 01.62 -08 23 32.6 20.2   644 – Palomar Mountain/NEAT MPS 211756
2002 04 08.40565 13 35 58.50 -08 23 17.8 20.2   644 – Palomar Mountain/NEAT MPS 211756
2004 10 08.42918 03 15 32.67 +17 43 38.1 20.8 V 691 – Steward Observatory, Kitt Peak-Spacewatch MPS 211756
2004 10 08.45585 03 15 31.78 +17 43 35.9 20.9 V 691 – Steward Observatory, Kitt Peak-Spacewatch MPS 211756
2004 10 08.48269 03 15 30.94 +17 43 33.7 20.8 V 691 – Steward Observatory, Kitt Peak-Spacewatch MPS 211756
2004 11 09.39892 02 50 45.13 +16 27 44.5 20.3 g 568 – Maunakea MPS 133346
2004 11 09.42533 02 50 43.69 +16 27 39.4 20.2 g 568 – Maunakea MPS 133346
2004 11 09.45130 02 50 42.26 +16 27 34.6 20.4 g 568 – Maunakea MPS 133346
2004 11 10.31680 02 49 56.05 +16 24 56.1 20.4 g 568 – Maunakea MPS 133346
2006 01 08.47658 09 16 29.38 +19 45 20.8 21.9 V G96 – Mt. Lemmon Survey MPS 211756
2006 01 08.48105 09 16 29.20 +19 45 21.4 20.9 V G96 – Mt. Lemmon Survey MPS 211756
2006 01 08.48560 09 16 29.02 +19 45 22.6 20.9 V G96 – Mt. Lemmon Survey MPS 211756
2006 01 08.49008 09 16 28.81 +19 45 23.9 21.1 V G96 – Mt. Lemmon Survey MPS 211756
2006 01 25.18501 09 03 30.47 +20 51 26.4   691 – Steward Observatory, Kitt Peak-Spacewatch MPS 162005
2006 01 25.20222 09 03 29.55 +20 51 30.6   691 – Steward Observatory, Kitt Peak-Spacewatch MPS 162005
2006 01 25.21950 09 03 28.63 +20 51 34.9   691 – Steward Observatory, Kitt Peak-Spacewatch MPS 162005
2006 01 30.18035 08 59 01.65 +21 11 00.0 20.2 V 691 – Steward Observatory, Kitt Peak-Spacewatch MPS 162005
2006 01 30.19768 08 59 00.69 +21 11 04.2 20.5 V 691 – Steward Observatory, Kitt Peak-Spacewatch MPS 162005
2006 01 30.21503 08 58 59.71 +21 11 08.4 20.8 V 691 – Steward Observatory, Kitt Peak-Spacewatch MPS 162005
2007 04 14.30353 14 38 23.52 -14 46 48.2 20.6 V 691 – Steward Observatory, Kitt Peak-Spacewatch MPS 207045
2007 04 14.32122 14 38 22.75 -14 46 45.4 21.0 V 691 – Steward Observatory, Kitt Peak-Spacewatch MPS 207045
2007 04 14.33891 14 38 21.88 -14 46 42.9 20.8 V 691 – Steward Observatory, Kitt Peak-Spacewatch MPS 207045
2007 04 18.28216 14 35 20.12 -14 35 39.6 21.2 V 691 – Steward Observatory, Kitt Peak-Spacewatch MPS 211866
2007 04 18.29983 14 35 19.22 -14 35 36.4 21.1 V 691 – Steward Observatory, Kitt Peak-Spacewatch MPS 211866
2007 04 18.31750 14 35 18.37 -14 35 33.2 20.9 V 691 – Steward Observatory, Kitt Peak-Spacewatch MPS 211866
2007 04 18.39038 14 35 14.74 -14 35 20.4 20.1 V G96 – Mt. Lemmon Survey MPS 207045
2007 04 18.39779 14 35 14.42 -14 35 19.2 20.3 V G96 – Mt. Lemmon Survey MPS 207045
2007 04 18.40706 14 35 13.95 -14 35 17.3 20.2 V G96 – Mt. Lemmon Survey MPS 207045
2007 04 18.42398 14 35 13.12 -14 35 14.6 20.5 V G96 – Mt. Lemmon Survey MPS 207045
2007 05 09.28347 14 17 44.66 -13 28 29.2 20.4 V G96 – Mt. Lemmon Survey MPS 211866
2007 05 09.29152 14 17 44.26 -13 28 27.9 20.2 V G96 – Mt. Lemmon Survey MPS 211866
2007 05 09.29965 14 17 43.83 -13 28 26.5 20.5 V G96 – Mt. Lemmon Survey MPS 211866
2007 05 09.30782 14 17 43.44 -13 28 24.8 20.2 V G96 – Mt. Lemmon Survey MPS 211866
2009 09 19.45234 04 15 37.83 +21 23 53.9 20.4 V G96 – Mt. Lemmon Survey MPS 295817
2009 09 19.46279 04 15 38.01 +21 23 54.3 20.5 V G96 – Mt. Lemmon Survey MPS 295817
2009 09 19.47331 04 15 38.19 +21 23 55.2 20.6 V G96 – Mt. Lemmon Survey MPS 295817
2009 09 19.48382 04 15 38.34 +21 23 55.7 20.8 V G96 – Mt. Lemmon Survey MPS 295817
2009 10 23.42223 04 11 12.25 +21 40 43.7 20.6 V 691 – Steward Observatory, Kitt Peak-Spacewatch MPS 300657
2009 10 23.43942 04 11 11.64 +21 40 42.8 20.7 V 691 – Steward Observatory, Kitt Peak-Spacewatch MPS 300657
2009 10 23.45659 04 11 11.02 +21 40 42.6 20.8 V 691 – Steward Observatory, Kitt Peak-Spacewatch MPS 300657
2009 10 27.41515 04 08 46.11 +21 38 02.1   691 – Steward Observatory, Kitt Peak-Spacewatch MPS 300657
2009 10 27.43236 04 08 45.42 +21 38 01.1   691 – Steward Observatory, Kitt Peak-Spacewatch MPS 300657
2009 10 27.44956 04 08 44.71 +21 38 00.4   691 – Steward Observatory, Kitt Peak-Spacewatch MPS 300657
2009 12 10.77543 03 30 56.66 +20 17 13.3 20.8 C 114 – Engelhardt Observatory, Zelenchukskaya Station MPS 307180
2009 12 10.78326 03 30 56.14 +20 17 09.4 20.8 C 114 – Engelhardt Observatory, Zelenchukskaya Station MPS 307180
2009 12 10.79109 03 30 55.78 +20 17 08.3 20.7 C 114 – Engelhardt Observatory, Zelenchukskaya Station MPS 307180
2009 12 17.20681 03 26 37.71 +20 05 09.0 20.2 V G96 – Mt. Lemmon Survey MPS 308520
2009 12 17.21457 03 26 37.39 +20 05 08.4 20.4 V G96 – Mt. Lemmon Survey MPS 308520
2009 12 17.22212 03 26 37.10 +20 05 07.4 20.4 V G96 – Mt. Lemmon Survey MPS 308520
2009 12 17.22958 03 26 36.81 +20 05 06.7 20.4 V G96 – Mt. Lemmon Survey MPS 308520
2011 01 26.24983 10 04 12.18 +15 54 51.5   691 – Steward Observatory, Kitt Peak-Spacewatch MPS 368405
2011 01 26.26011 10 04 11.77 +15 54 53.7   691 – Steward Observatory, Kitt Peak-Spacewatch MPS 368405
2011 01 26.27038 10 04 11.30 +15 54 56.3   691 – Steward Observatory, Kitt Peak-Spacewatch MPS 368405
2011 02 08.25689 09 53 59.42 +16 53 08.5 20.6 V G96 – Mt. Lemmon Survey MPS 371303
2011 02 08.25748 09 53 59.35 +16 53 08.7 20.4 V G96 – Mt. Lemmon Survey MPS 371303
2011 02 08.26619 09 53 58.88 +16 53 10.8 20.3 V G96 – Mt. Lemmon Survey MPS 371303
2011 02 08.26678 09 53 58.88 +16 53 11.3 20.5 V G96 – Mt. Lemmon Survey MPS 371303
2011 02 08.27558 09 53 58.41 +16 53 13.8 19.8 V G96 – Mt. Lemmon Survey MPS 371303
2011 02 08.27613 09 53 58.38 +16 53 13.9 20.5 V G96 – Mt. Lemmon Survey MPS 371303
2011 03 02.23749 09 35 26.41 +18 18 49.7 20.7 V G96 – Mt. Lemmon Survey MPS 373270
2011 03 02.24332 09 35 26.12 +18 18 51.2 20.8 V G96 – Mt. Lemmon Survey MPS 373270
2011 03 02.24910 09 35 25.87 +18 18 51.8 20.8 V G96 – Mt. Lemmon Survey MPS 373270
2011 03 02.25487 09 35 25.58 +18 18 53.1 20.8 V G96 – Mt. Lemmon Survey MPS 373270
2012 05 14.41297 15 26 46.664 -19 29 01.43 19.8 r F51 – Pan-STARRS 1, Haleakala MPS 424785
2012 05 14.42327 15 26 46.096 -19 29 00.07 19.7 r F51 – Pan-STARRS 1, Haleakala MPS 424785
2012 05 14.43448 15 26 45.470 -19 28 58.56 20.0 g F51 – Pan-STARRS 1, Haleakala MPS 424785
